DELTA 1 DEB, 40769

Orbit data source: Space-Track

DELTA 1 DEB, 40769 is space debris in SSO originally from a launch on Thu, 29 Jul 1976 UTC launched from the Air Force Western Test Range (AFWTR). Debris objects in space refer to the collection of defunct objects orbiting the Earth. Examples of debris include non-operational satellites, rocket bodies, and fragments generated from explosions, collisions, or faulty payload assembly.

Loading next visibility...
Identifier
40769, 1976-077GN
Orbit
SSO
Country
Flag of USUS
Related business
Manufacturer
Unknown
Mission
Spacecraft
Bus & Motor
Unknown
Mass
Unknown
Launch date (UTC)
1976-07-29 (50 years ago)
Launch vehicle
Unknown
Launch site
Air Force Western Test Range (AFWTR)
Object type
Payload
Rocket body
Debris
Shape & HBR
Unknown shape, 0.1 m
Radar Cross Section
Medium (>0.1 m² and <1 m²)

Expand to show TLE details & history
Last TLE update: 2 days ago

TLE from 2 days ago
0 DELTA 1 DEB
1 40769U 76077GN  26149.36951021  .00000177  00000-0  16036-2 0  9995
2 40769 102.0634 124.8303 0012421  57.7516 302.4751 12.42721453 64504
Epoch: 2026-05-29T08:52Z
TLE epoch observation values (Epoch: 2026-05-29T08:52:05.682Z)
Latitude
-0.00001°
Longitude
104.90575°
Altitude
1,492.395 km
Speed
7.12 km/s
True Right ascension
08h 19m 19s
True Declination
0° 00' 00"
Sunlit
Object was in daylight at epoch
Visualization orbit readout
Latitude
Unknown
Longitude
Unknown
Altitude
Unknown
Speed
Unknown
Apparent Right ascension
Unknown
Apparent Declination
Unknown
Sunlit
N/A
Visualization observer readout
Local Sidereal Time
08:28:36
Azimuth
Unknown
Elevation
Unknown
Doppler factor
Unknown
Orbital elements
Apogee altitude
1,502.439 km
Perigee altitude
1,482.886 km
Semi-major axis
7,870.8 km
Eccentricity
0.00124
Inclination
102.0634°
RAAN
124.8303°
Arg. of periapsis
57.7516°
True anomaly
302.35492°
Mean anomaly
302.4751°
Eccentric anomaly
302.41502°
Mean motion
3.10824 °/min
Orbital period
115.82 mins
BSTAR
0.0016036
Loading maneuver chart data...
Computing Atmospheric mass density...
Loading historical data...
Loading historical data...
Loading historical data...
Loading historical data...
Loading historical data...
Loading historical data...
Loading historical data...

Documentation

Showing up to 5 results
|